Regional Weather Roundup
Issued by NWS

Home | Current Version | Previous Version | Text Only | Print | Product List | Glossary On
Versions: 1 2 3 4 5 6 7 8 9 10 11 12 13 14 15 16 17 18 19 20 21 22 23 24 25 26 27 28 29 30 31 32 33 34 35 36 37 38 39 40 41 42 43 44 45 46 47 48 49 50
000
ASUS43 KLMK 290110
RWRKY
KENTUCKY REGIONAL WEATHER ROUNDUP
NATIONAL WEATHER SERVICE LOUISVILLE KY
900 PM EDT WED JUN 28 2017

NOTE "FAIR" INDICATES FEW OR NO CLOUDS BELOW 12,000 FEET
WITH NO SIGNIFICANT WEATHER AND/OR OBSTRUCTIONS TO VISIBILITY.

KYZ001>023-026-027-061>063-070>075-290200-
WESTERN AND SOUTH CENTRAL KENTUCKY

CITY           SKY/WX    TMP DP  RH WIND       PRES   REMARKS
PADUCAH        CLEAR     81  63  54 S6        29.95S
HENDERSON      CLOUDY    77  64  64 S6        29.96F
OWENSBORO      PTCLDY    78  62  57 SE7       29.98F
HOPKINSVILLE   CLEAR     81  63  53 S8        30.00F
BOWLING GREEN  CLOUDY    77  62  59 SE6       30.03F
GLASGOW        CLEAR     77  56  48 SE3       30.05S
$$

KYZ024-025-028>034-038-045-046-053-290200-
NORTH CENTRAL KENTUCKY

CITY           SKY/WX    TMP DP  RH WIND       PRES   REMARKS
LOUISVILLE/SDF CLOUDY    79  56  45 S10       30.01F
LOUISVILLE/LOU PTCLDY    79  56  45 S7        30.02F
FORT KNOX      CLOUDY    73  56  54 S7        30.01F
$$

KYZ035>037-039>044-047>052-055>060-089>105-290200-
NORTHEAST KENTUCKY

CITY           SKY/WX    TMP DP  RH WIND       PRES   REMARKS
LEXINGTON      PTCLDY    74  54  49 S3        30.06F
COVINGTON      MOCLDY    71  58  63 S7        30.02F
FRANKFORT      CLOUDY    76  56  49 S8        30.03F
$$

KYZ054-064>069-076>088-106>120-290200-
SOUTHEAST KENTUCKY

CITY           SKY/WX    TMP DP  RH WIND       PRES   REMARKS
JACKSON        CLEAR     76  56  49 CALM      30.10R
LONDON         CLEAR     75  55  49 CALM      30.10R
SOMERSET       PTCLDY    75  55  50 CALM      30.09S
MIDDLESBORO    CLEAR     72  59  62 CALM      30.12R
MONTICELLO     CLEAR     69  63  81 CALM      30.10R
$$




USA.gov is the U.S. government's official web portal to all federal, state and local government web resources and services.